[[{"header":{"parameterUnit":"m.s-1","parameterCategory":1,"la1":30.2991,"la2":30.254,"lo1":-89.0895,"lo2":-89.0444,"dx":0.0017,"dy":0.0017,"nx":28,"ny":28,"refTime":"2022-11-07T03:00:00:Z","depth":0,"parameterNumber":2,"parameterNumberName":"U-component_of_WINDS"},"data":[0,0,0,0,0,0,0,0,0,0,0,0,0,0,0,0,0,0,0,0,0,0,0,0,0,0,0,0,0,0,0,0,0,0,0,0,0,0,0,0,0,0,0,0,0,0,0,0,0,0,0,0,0,0,0,0,0,0,1.1213,1.1213,0,1.1261,1.1262,1.1262,1.1212,1.121,1.1208,1.1206,1.1256,1.1259,1.1262,0,0,0,0,0,0,0,0,0,0,0,0,0,1.1078,1.1081,1.1213,1.1213,1.1214,1.1261,1.1262,1.1262,1.1212,1.121,1.1207,1.1205,1.1255,1.1259,1.1263,0,0,0,0,0,0,0,0,0,0,0,0,0,1.1132,1.1081,1.1213,1.1195,1.1193,1.1261,1.1262,1.1263,1.1213,1.121,1.1207,1.1204,1.1254,1.1259,1.1263,1.1351,0,0,1.1278,1.128,0,0,0,0,0,0,0,0,1.1129,1.1137,1.1197,1.1196,1.1195,1.1227,1.1233,1.1292,1.1213,1.1205,1.1206,1.1203,1.1249,1.1254,1.127,1.1354,1.1356,1.1278,1.1281,1.1283,1.1284,0,0,0,0,0,0,0,1.1126,1.1135,1.1232,1.1198,1.1196,1.1184,1.1189,1.1244,1.1243,1.1206,1.1202,1.1209,1.1248,1.1265,1.127,1.1356,1.1278,1.1282,1.1285,1.1287,1.1515,1.1518,0,0,0,0,0,0,1.1124,1.1132,1.123,1.1233,1.1154,1.1189,1.1194,1.122,1.1242,1.1243,1.1211,1.1206,1.1258,1.1265,1.1272,1.1376,1.1283,1.1287,1.129,1.1512,1.1516,1.1519,0,0,0,0,0,0,1.1121,1.1133,1.1228,1.1182,1.1193,1.1195,1.1224,1.1222,1.1239,1.1246,1.1246,1.1229,1.1256,1.1265,1.1332,1.1377,1.129,1.1294,1.1508,1.1513,1.1517,1.1584,0,0,0,0,0,0,1.1117,1.1132,1.1165,1.1183,1.1196,1.1287,1.1227,1.1226,1.1248,1.1242,1.1263,1.1263,1.1255,1.1325,1.1337,1.1382,1.1298,1.1504,1.151,1.1516,1.1578,1.1591,1.1601,0,0,0,0,0,1.1113,1.1183,1.1167,1.1179,1.1237,1.129,1.1297,1.1286,1.1252,1.1285,1.1289,1.1263,1.137,1.1332,1.1345,1.1392,1.1501,1.1508,1.1515,1.1572,1.1588,1.1601,0,0,0,0,0,0,1.117,1.1184,1.1168,1.1245,1.1267,1.1281,1.1323,1.1303,1.1334,1.1327,1.1312,1.1317,1.1388,1.1397,1.1354,1.1478,1.143,1.144,1.1469,1.1484,1.1496,1.1491,1.1302,0,0,0,0,0,1.1192,1.1233,1.1244,1.1311,1.1323,1.1321,1.1344,1.1333,1.1355,1.1364,1.1373,1.1396,1.1434,1.146,1.1496,1.158,1.1583,1.1618,1.163,1.164,1.1648,1.1692,1.1708,1.1543,1.1543,1.1542,0,0,1.1237,1.125,1.1277,1.1323,1.1338,1.1382,1.1329,1.1377,1.1409,1.1371,1.1434,1.1442,1.1466,1.1541,1.1575,1.1551,1.1695,1.1649,1.1657,1.166,1.1701,1.1717,1.1731,1.1548,1.1547,1.1546,0,0,1.1341,1.1355,1.1412,1.1429,1.1453,1.1452,1.1466,1.1484,1.1488,1.1551,1.1523,1.1561,1.1629,1.1646,1.1664,1.1777,1.1753,1.1789,1.185,1.1893,1.1906,1.1918,1.1957,1.1971,1.1798,1.1798,1.1798,0,1.1394,1.1457,1.1445,1.1495,1.1515,1.1484,1.1541,1.1559,1.1593,1.1609,1.1582,1.1665,1.1679,1.1758,1.1785,1.1802,1.1817,1.1785,1.1906,1.1917,1.1927,1.1964,1.1979,1.1802,1.1802,1.1801,1.1801,0,1.1521,1.1565,1.1609,1.1643,1.1669,1.1723,1.1719,1.1747,1.1735,1.1737,1.1801,1.1817,1.1856,1.1874,1.1863,1.1952,1.1936,1.1908,1.1859,1.1947,1.1982,1.1996,1.1808,1.1806,1.1805,1.1804,0,0,1.1659,1.1687,1.1703,1.1718,1.1743,1.1777,1.183,1.1868,1.1892,1.1918,1.1961,1.2019,1.1993,1.2014,1.2005,1.2043,1.213,1.201,1.201,1.203,1.2227,1.2247,1.2263,1.2115,1.2118,1.212,1.2225,0,1.1763,1.1853,1.1844,1.193,1.1971,1.1942,1.1988,1.2009,1.2013,1.2048,1.2052,1.2093,1.2057,1.2069,1.2106,1.2111,1.2169,1.2104,1.2155,1.2157,1.2147,1.2281,1.2302,1.24,1.2238,1.224,1.2242,0,1.1894,1.1924,1.2014,1.2033,1.205,1.2091,1.2125,1.216,1.2183,1.2183,1.2207,1.2191,1.2244,1.2196,1.2269,1.2225,1.2246,1.2252,1.2255,1.2258,1.2203,1.2286,1.2431,1.2445,1.2263,1.2262,1.226,0,1.1984,1.2048,1.2109,1.2124,1.2147,1.2177,1.2189,1.2209,1.2232,1.2262,1.2277,1.2314,1.2333,1.2362,1.2356,1.2322,1.2431,1.2382,1.2431,1.2431,1.2453,1.2452,1.2602,1.2471,1.247,1.247,1.247,0,1.2099,1.2155,1.215,1.2188,1.225,1.224,1.2302,1.231,1.2328,1.2367,1.2346,1.2383,1.2375,1.2412,1.2409,1.2469,1.2479,1.248,1.2478,1.2481,1.248,1.2492,1.2484,1.2474,1.2473,1.2472,1.2472,0,1.2208,1.2208,1.2273,1.2291,1.2297,1.2342,1.2357,1.2393,1.2396,1.2445,1.2457,1.2461,1.2504,1.2502,1.2551,1.2548,1.2622,1.2614,1.2614,1.2611,1.266,1.2655,1.2821,1.2842,1.27,1.2701,1.2702,0,1.228,1.2322,1.2345,1.2369,1.2383,1.2423,1.2446,1.2439,1.2465,1.2495,1.2527,1.2568,1.26,1.267,1.2677,1.2715,1.2705,1.2761,1.2711,1.2712,1.2704,1.27,1.2704,1.277,1.2772,1.2773,1.2774,0,1.2407,1.2405,1.2439,1.2475,1.2504,1.2531,1.2556,1.2578,1.2573,1.2604,1.2647,1.2672,1.2722,1.2763,1.2799,1.2811,1.2792,1.2791,1.2804,1.2806,1.2803,1.2803,1.2639,1.2786,1.2785,1.2784,1.2784,1.2783,1.2498,1.2534,1.2556,1.2595,1.2614,1.2638,1.2672,1.268,1.2716,1.2755,1.275,1.2798,1.2821,1.2867,1.2883,1.2921,1.2901,1.292,1.2925,1.2929,1.2934,1.28,1.2928,1.2928,1.2927,1.2927,1.2927,0,1.2622,1.2635,1.2672,1.2707,1.2739,1.2719,1.2747,1.2774,1.2817,1.284,1.2872,1.2922,1.2962,1.2974,1.3012,1.304,1.3033,1.305,1.3047,1.305,1.295,1.2934,1.3056,1.3056,1.3056,1.3056,1.3056,1.3056,1.269,1.2749,1.275,1.2819,1.2832,1.2879,1.2896,1.2918,1.2936,1.2993,1.3026,1.3034,1.3052,1.3092,1.3128,1.313,1.3144,1.3165,1.3164,1.307,1.3057,1.3045,1.3029,1.3169,1.3169,1.326,1.3261,1.3262]},{"header":{"parameterUnit":"m.s-1","parameterCategory":1,"la1":30.2991,"la2":30.254,"lo1":-89.0895,"lo2":-89.0444,"dx":0.0017,"dy":0.0017,"nx":28,"ny":28,"refTime":"2022-11-07T03:00:00:Z","depth":0,"parameterNumber":3,"parameterNumberName":"V-component_of_WINDS"},"data":[0,0,0,0,0,0,0,0,0,0,0,0,0,0,0,0,0,0,0,0,0,0,0,0,0,0,0,0,0,0,0,0,0,0,0,0,0,0,0,0,0,0,0,0,0,0,0,0,0,0,0,0,0,0,0,0,0,0,-0.4321,-0.4322,0,-0.4467,-0.4468,-0.447,-0.457,-0.457,-0.4571,-0.4572,-0.4723,-0.4727,-0.473,0,0,0,0,0,0,0,0,0,0,0,0,0,-0.4131,-0.4133,-0.4321,-0.4322,-0.4324,-0.4467,-0.4469,-0.4471,-0.457,-0.4571,-0.4571,-0.4572,-0.4722,-0.4726,-0.473,0,0,0,0,0,0,0,0,0,0,0,0,0,-0.4238,-0.4134,-0.432,-0.4391,-0.4399,-0.4466,-0.4469,-0.4471,-0.4569,-0.4571,-0.4572,-0.4573,-0.4721,-0.4726,-0.4731,-0.474,0,0,-0.4746,-0.4748,0,0,0,0,0,0,0,0,-0.4232,-0.4245,-0.4379,-0.4386,-0.4395,-0.4501,-0.4457,-0.4561,-0.4569,-0.4505,-0.4572,-0.4573,-0.4649,-0.466,-0.4685,-0.4748,-0.4754,-0.4747,-0.475,-0.4752,-0.4753,0,0,0,0,0,0,0,-0.4225,-0.424,-0.4379,-0.438,-0.439,-0.4416,-0.4433,-0.4477,-0.4569,-0.451,-0.4518,-0.4534,-0.4653,-0.468,-0.4689,-0.4756,-0.4747,-0.4751,-0.4754,-0.4756,-0.4838,-0.4837,0,0,0,0,0,0,-0.4206,-0.4233,-0.4374,-0.4383,-0.4314,-0.4419,-0.4437,-0.4466,-0.4569,-0.4585,-0.4533,-0.4538,-0.4671,-0.4683,-0.4695,-0.4715,-0.4752,-0.4757,-0.476,-0.4838,-0.4837,-0.4836,0,0,0,0,0,0,-0.4201,-0.4217,-0.4368,-0.431,-0.4331,-0.4421,-0.4452,-0.4468,-0.4495,-0.4586,-0.4603,-0.4543,-0.4672,-0.4688,-0.4729,-0.4722,-0.4759,-0.4763,-0.4839,-0.4838,-0.4837,-0.4754,0,0,0,0,0,0,-0.4195,-0.4215,-0.4219,-0.4309,-0.4334,-0.4398,-0.4452,-0.447,-0.4503,-0.4511,-0.4599,-0.4615,-0.4674,-0.4721,-0.4734,-0.473,-0.4767,-0.4841,-0.4839,-0.4837,-0.4758,-0.475,-0.4744,0,0,0,0,0,-0.4188,-0.4189,-0.4218,-0.4235,-0.434,-0.4398,-0.4412,-0.4479,-0.4502,-0.4507,-0.4566,-0.4612,-0.472,-0.4724,-0.474,-0.4737,-0.4841,-0.4839,-0.4837,-0.4761,-0.4752,-0.4744,0,0,0,0,0,0,-0.4096,-0.4203,-0.4236,-0.4266,-0.4322,-0.4414,-0.4423,-0.4466,-0.4518,-0.4523,-0.4605,-0.4624,-0.4657,-0.4701,-0.4704,-0.4753,-0.4787,-0.4788,-0.4723,-0.4715,-0.4708,-0.4698,-0.4772,0,0,0,0,0,-0.4079,-0.4116,-0.4207,-0.4226,-0.4252,-0.4332,-0.436,-0.4407,-0.4468,-0.4493,-0.4554,-0.4613,-0.4661,-0.469,-0.4738,-0.4765,-0.4787,-0.477,-0.4763,-0.4757,-0.4757,-0.4777,-0.4772,-0.483,-0.483,-0.483,0,0,-0.4045,-0.4107,-0.4126,-0.4209,-0.4258,-0.4296,-0.4352,-0.4389,-0.4418,-0.4499,-0.4542,-0.4589,-0.466,-0.4694,-0.4713,-0.4732,-0.4746,-0.4754,-0.4748,-0.4753,-0.4775,-0.4769,-0.4764,-0.4829,-0.4829,-0.4829,0,0,-0.4002,-0.4052,-0.4074,-0.4122,-0.4196,-0.4249,-0.4254,-0.4341,-0.4375,-0.4419,-0.4481,-0.4518,-0.4597,-0.4646,-0.4681,-0.4659,-0.4704,-0.4672,-0.4635,-0.4654,-0.4649,-0.4645,-0.464,-0.4637,-0.4672,-0.4672,-0.4672,0,-0.395,-0.4009,-0.408,-0.4114,-0.415,-0.4224,-0.4248,-0.4291,-0.4377,-0.44,-0.442,-0.4523,-0.4576,-0.4624,-0.4619,-0.4644,-0.4654,-0.4663,-0.4644,-0.4641,-0.4639,-0.4634,-0.4632,-0.4668,-0.4668,-0.4668,-0.4669,0,-0.3943,-0.3983,-0.3992,-0.4073,-0.411,-0.4138,-0.4215,-0.4244,-0.4288,-0.4339,-0.4385,-0.4451,-0.4516,-0.453,-0.4573,-0.4585,-0.4595,-0.4628,-0.4664,-0.4628,-0.4625,-0.4624,-0.4662,-0.4663,-0.4664,-0.4665,0,0,-0.3847,-0.3968,-0.397,-0.4009,-0.4096,-0.4129,-0.4161,-0.4224,-0.4248,-0.4305,-0.4336,-0.4402,-0.4434,-0.4474,-0.4523,-0.4539,-0.452,-0.4571,-0.4574,-0.4561,-0.454,-0.4516,-0.4513,-0.455,-0.455,-0.455,-0.4535,0,-0.3819,-0.3882,-0.3947,-0.3988,-0.4027,-0.4099,-0.4128,-0.4185,-0.4234,-0.4276,-0.4331,-0.4378,-0.4415,-0.444,-0.4458,-0.4518,-0.4517,-0.452,-0.4582,-0.4583,-0.4564,-0.4511,-0.4486,-0.4469,-0.4534,-0.4534,-0.4534,0,-0.3796,-0.3849,-0.3893,-0.3979,-0.3998,-0.4023,-0.4087,-0.4125,-0.4192,-0.4227,-0.4272,-0.4325,-0.4365,-0.4394,-0.4452,-0.4452,-0.4482,-0.4515,-0.4516,-0.4526,-0.4558,-0.4522,-0.4465,-0.4463,-0.4533,-0.4533,-0.4533,0,-0.3724,-0.3807,-0.3845,-0.3876,-0.3976,-0.3992,-0.4034,-0.4102,-0.4137,-0.4193,-0.4216,-0.4276,-0.4309,-0.4355,-0.4423,-0.4438,-0.4474,-0.4509,-0.4507,-0.4505,-0.4512,-0.4511,-0.4461,-0.4527,-0.4527,-0.4527,-0.4527,0,-0.3688,-0.3712,-0.3815,-0.3838,-0.3869,-0.3944,-0.3973,-0.4021,-0.4082,-0.4117,-0.4182,-0.4214,-0.4301,-0.4344,-0.4398,-0.4439,-0.4453,-0.4484,-0.4498,-0.4479,-0.4475,-0.4501,-0.4505,-0.4527,-0.4527,-0.4527,-0.4527,0,-0.3613,-0.3682,-0.3729,-0.382,-0.3844,-0.3862,-0.3941,-0.3967,-0.4021,-0.4065,-0.408,-0.4164,-0.4218,-0.429,-0.4366,-0.4403,-0.4438,-0.4459,-0.4415,-0.4424,-0.4418,-0.4419,-0.4384,-0.4385,-0.4447,-0.4447,-0.4446,0,-0.3587,-0.3608,-0.3701,-0.373,-0.377,-0.3814,-0.385,-0.3925,-0.396,-0.4039,-0.4056,-0.4115,-0.4166,-0.425,-0.4318,-0.4378,-0.4402,-0.4386,-0.4412,-0.4393,-0.4405,-0.4404,-0.4408,-0.438,-0.4379,-0.4378,-0.4378,0,-0.3533,-0.3566,-0.3615,-0.3676,-0.3716,-0.3768,-0.3823,-0.3842,-0.3929,-0.3965,-0.4021,-0.4061,-0.4139,-0.4198,-0.4266,-0.4312,-0.436,-0.4369,-0.4372,-0.4354,-0.4329,-0.4345,-0.44,-0.437,-0.437,-0.4371,-0.4371,-0.4372,-0.3484,-0.3507,-0.3577,-0.3629,-0.3678,-0.3728,-0.3758,-0.3815,-0.3863,-0.3933,-0.3974,-0.4029,-0.4098,-0.4195,-0.4238,-0.4283,-0.4302,-0.4306,-0.4307,-0.4308,-0.4302,-0.4319,-0.4296,-0.4296,-0.4297,-0.4297,-0.4297,0,-0.3436,-0.3484,-0.3531,-0.3606,-0.3648,-0.3688,-0.3752,-0.3784,-0.3831,-0.3891,-0.3941,-0.4006,-0.4063,-0.4137,-0.42,-0.4222,-0.4246,-0.4236,-0.4237,-0.4247,-0.4281,-0.4273,-0.4216,-0.4216,-0.4216,-0.4216,-0.4216,-0.4216,-0.3415,-0.3457,-0.3499,-0.3566,-0.3616,-0.367,-0.3702,-0.375,-0.3798,-0.3868,-0.3916,-0.3963,-0.4029,-0.4098,-0.4153,-0.4173,-0.4195,-0.4179,-0.4206,-0.4237,-0.4244,-0.4251,-0.4244,-0.4182,-0.4182,-0.4169,-0.4168,-0.4168]}]]